Погода в Булгакове

Россия / Республика Мордовия     54°03′33″N   45°14′36″E
темп.,
°C
ветер,
м/с
пор.,
м/с
влажн.,
%
обл.,
%
осадки,
мм/ч
давл.,
гПа
погр.,
м
10 апреля, сб
сб1000:00−1св229538 0.0 102718
03:00−1св2596100 0.0 102895
06:00−1св3995100 0.0 1028223
09:00+1св51193100 0.1 1027441
12:00+1ссв51099100 1.1 1027359
15:00+1ссв51198100 2.3 1026386
18:00+1св4999100 0.9 1026297
21:00+1ссв3799100 2.3 1026224
11 апреля, вс
вс1100:00+1с4899100 0.1 1025223
03:00+1с41099100 0.1 1026257
06:00+1с4999100 0.0 1028283
09:00+3ссв4998100 0.0 1029302
12:00+4ссв5897100 0.0 1030330
15:00+4св41097100 2.9 1030357
18:00+4св41098100 2.9 1031318
21:00+4св51198100 3.9 1031272
12 апреля, пн
пн1200:00+4св4998100 0.3 1032203
03:00+4всв41296100 0.3 1031243
06:00+4св599898 0.0 1032195
09:00+8всв588796 0.0 1032280
12:00+14в577297 0.0 1031595
15:00+17вюв6758100 0.0 1030901
18:00+14в4875100 0.0 1030166
21:00+11вюв4983100 0.0 1031136
13 апреля, вт
вт1300:00+9вюв338369 0.0 103132
03:00+8вюв338140 0.0 103125
06:00+7юв337918 0.0 103137
09:00+12ююв485874 0.0 1031389
12:00+16ююв573938 0.0 10291128
15:00+18ю56335 0.0 10281401
18:00+15ююв33515 0.0 102744
21:00+11ююв33620 0.0 102842
14 апреля, ср
ср1400:00+9ююв33670 0.0 102826
03:00+8юв226947 0.0 102815
06:00+7юв3272100 0.0 102728
09:00+13юв355886 0.0 1027266
12:00+17ююв4640100 0.0 10251168
15:00+19ююв563239 0.0 10231511
18:00+15ююв34485 0.0 102368
21:00+11ююв33595 0.0 102340